Flag for Japan Weather past 2 weeks in Utsunomiya, Japan

Now
49 °F

Cool.


Feels Like: 48 °F
Forecast: 39 / 66 °F
Wind: 3 mph from North

Location: Mito

Current Time: Apr 19, 2015 at 1:03:33 AM

Latest Report: Apr 19, 2015 at 12:00 AM


Visibility: N/A

Pressure: 30.05 "Hg

Humidity: 89%

Dew point: 46 °F

Location of UtsunomiyaLocation

Historic Weather in Utsunomiya — Graph

°F

Utsunomiya temperature yesterday

Maximum temperature yesterday: 67 °F (at 2:00 PM)
Minimum temperature yesterday: 39 °F (at 4:00 AM)
Average temperature yesterday: 53 °F

Past Weeks' High & Low Weather Summary

 TemperatureHumidityPressure
High71 °F (Apr 15, 1:00 PM)98% (Apr 10, 11:00 PM)30.48 "Hg (Apr 10, 11:00 PM)
Low33 °F (Apr 9, 5:00 AM)25% (Apr 18, 2:00 PM)29.44 "Hg (Apr 15, 4:00 PM)
Average50 °F82%30.07 "Hg
* Reported Apr 3 11:00 PM — Apr 18 11:00 PM, Utsunomiya, Weather by CustomWeather, © 2015

Note: Actual official high and low records may vary slightly from our data, if they occured in-between our weather recording intervals... More about our weather records

Advertising

Utsunomiya weather history for previous 24 hours

 ConditionsComfort  
Time TempWeatherWind HumidityBarometerVisibility
11:00 PM
Sat, Apr 18
51 °FCool.3 mph83%30.04 "HgN/A
10:00 PM54 °FCool.2 mph81%30.03 "HgN/A
9:00 PM57 °FPassing clouds.2 mph70%30.02 "Hg9 mi
8:00 PM58 °FCool.7 mph66%30.00 "HgN/A
7:00 PM59 °FRefreshingly cool.9 mph58%29.97 "HgN/A
6:00 PM61 °FRefreshingly cool.8 mph53%29.96 "HgN/A
5:00 PM63 °FMild.12 mph48%29.96 "HgN/A
4:00 PM64 °FMild.13 mph45%29.94 "HgN/A
3:00 PM66 °FOvercast.15 mph39%29.93 "Hg12 mi
2:00 PM67 °FMild.16 mph25%29.96 "HgN/A
1:00 PM66 °FMild.14 mph29%29.98 "HgN/A
11:00 AM61 °FRefreshingly cool.10 mph43%30.06 "HgN/A
10:00 AM59 °FRefreshingly cool.7 mph46%30.08 "HgN/A
9:00 AM56 °FSunny.8 mph56%30.09 "Hg9 mi
8:00 AM49 °FCool.5 mph72%30.09 "HgN/A
7:00 AM43 °FQuite cool.2 mph94%30.11 "HgN/A
6:00 AM40 °FQuite cool.1 mph95%30.10 "HgN/A
5:00 AM40 °FChilly.2 mph97%30.09 "HgN/A
4:00 AM39 °FChilly.1 mph96%30.08 "HgN/A
3:00 AM43 °FFog.2 mph96%30.07 "Hg2 mi
2:00 AM44 °FQuite cool.3 mph96%30.07 "HgN/A
1:00 AM44 °FQuite cool.3 mph94%30.04 "HgN/A
Weather by CustomWeather, © 2015

See weather overviewHow to use our weather pages